This demonstration page uses our WeatherBlox Daily Observations layout. Learn more.

Left ArrowRight Arrow

Hourly Observations for November 21, 2019

Temp ( °F °C ) Dew Point ( °F °C ) Humidity (%) Winds ( mph kmh ) Pressure ( in mb ) Visibility ( mi km ) Precip ( " mm )
12:53 am 00:53 Clear 43 6.1 38 3.3 82 82 Calm 30.23 1024 10 16 0.00 0.00
1:53 am 01:53 Clear 42 5.6 39 3.9 89 89 Calm 30.24 1024 10 16 0.00 0.00
2:53 am 02:53 Clear 40 4.4 37 2.8 89 89 NNE 3 6 30.23 1024 10 16 0.00 0.00
3:53 am 03:53 Clear 41 5 37 2.8 86 86 Calm 30.24 1024 10 16 0.00 0.00
4:53 am 04:53 Clear 40 4.4 38 3.3 93 93 Calm 30.24 1024 10 16 0.00 0.00
5:53 am 05:53 Clear 39 3.9 37 2.8 93 93 Calm 30.25 1025 10 16 0.00 0.00
6:53 am 06:53 Clear 38 3.3 36 2.2 93 93 Calm 30.29 1026 10 16 0.00 0.00
7:53 am 07:53 Sunny 39 3.9 39 3.9 100 100 Calm 30.30 1026 10 16 0.00 0.00
9:53 am 09:53 Sunny 53 11.7 41 5 64 64 Calm 30.31 1026 10 16 0.00 0.00
10:53 am 10:53 Sunny 59 15 39 3.9 48 48 S 6 9 30.29 1026 10 16 0.00 0.00
11:53 am 11:53 Sunny 62 16.7 38 3.3 41 41 SSE 8 13 30.26 1025 10 16 0.00 0.00
12:53 pm 12:53 Sunny 65 18.3 38 3.3 37 37 SE 8 13 30.22 1023 10 16 0.00 0.00
1:53 pm 13:53 Sunny 66 18.9 37 2.8 34 34 SSW 6 9 30.19 1022 10 16 0.00 0.00
2:53 pm 14:53 Sunny 65 18.3 39 3.9 39 39 SSW 6 9 30.19 1022 10 16 0.00 0.00
3:53 pm 15:53 Sunny 63 17.2 38 3.3 40 40 SSW 5 7 30.19 1022 10 16 0.00 0.00
4:53 pm 16:53 Sunny 62 16.7 40 4.4 44 44 SSW 3 6 30.19 1023 10 16 0.00 0.00
5:53 pm 17:53 Clear 61 16.1 40 4.4 46 46 S 3 6 30.18 1022 10 16 0.00 0.00
6:53 pm 18:53 Clear 59 15 40 4.4 49 49 S 3 6 30.17 1022 10 16 0.00 0.00
7:53 pm 19:53 Mostly Clear 57 13.9 41 5 55 55 Calm 30.19 1022 10 16 0.00 0.00
8:53 pm 20:53 Clear 54 12.2 44 6.7 69 69 Calm 30.18 1022 10 16 0.00 0.00
11:53 pm 23:53 Clear 50 10 44 6.7 80 80 Calm 30.15 1021 10 16 0.00 0.00

Powered by AerisWeather